Year,Month,Day,Hour,Minute,Value (Times are PST for temperature in C)
2020,01,16,00,00,4.50
2020,01,16,00,01,4.50
2020,01,16,00,02,4.50
2020,01,16,00,03,4.40
2020,01,16,00,04,4.40
2020,01,16,00,05,4.40
2020,01,16,00,06,4.40
2020,01,16,00,07,4.40
2020,01,16,00,08,4.40
2020,01,16,00,09,4.40
2020,01,16,00,10,4.40
2020,01,16,00,11,4.40
2020,01,16,00,12,4.40
2020,01,16,00,13,4.40
2020,01,16,00,14,4.40
2020,01,16,00,15,4.40
2020,01,16,00,16,4.40
2020,01,16,00,17,4.40
2020,01,16,00,18,4.30
2020,01,16,00,19,4.40
2020,01,16,00,20,4.40
2020,01,16,00,21,4.40
2020,01,16,00,22,4.40
2020,01,16,00,23,4.30
2020,01,16,00,24,4.30
2020,01,16,00,25,4.30
2020,01,16,00,26,4.40
2020,01,16,00,27,4.40
2020,01,16,00,28,4.40
2020,01,16,00,29,4.40
2020,01,16,00,30,4.40
2020,01,16,00,31,4.40
2020,01,16,00,32,4.40
2020,01,16,00,33,4.40
2020,01,16,00,34,4.40
2020,01,16,00,35,4.40
2020,01,16,00,36,4.30
2020,01,16,00,37,4.30
2020,01,16,00,38,4.30
2020,01,16,00,39,4.20
2020,01,16,00,40,4.20
2020,01,16,00,41,4.30
2020,01,16,00,42,4.30
2020,01,16,00,43,4.40
2020,01,16,00,44,4.40
2020,01,16,00,45,4.50
2020,01,16,00,46,4.50
2020,01,16,00,47,4.50
2020,01,16,00,48,4.50
2020,01,16,00,49,4.40
2020,01,16,00,50,4.40
2020,01,16,08,23,1.30
2020,01,16,08,24,1.30
2020,01,16,08,25,1.30
2020,01,16,08,26,1.30
2020,01,16,08,27,1.30
2020,01,16,08,28,1.30
2020,01,16,08,29,1.30
2020,01,16,08,30,1.30
2020,01,16,08,31,1.30
2020,01,16,08,32,1.30
2020,01,16,08,33,1.30
2020,01,16,08,34,1.30
2020,01,16,08,35,1.30
2020,01,16,08,36,1.30
2020,01,16,08,37,1.30
2020,01,16,08,38,1.30
2020,01,16,08,39,1.30
2020,01,16,08,40,1.30
2020,01,16,08,41,1.30
2020,01,16,08,42,1.30
2020,01,16,08,43,1.30
2020,01,16,08,44,1.30
2020,01,16,08,45,1.30
2020,01,16,08,46,1.30
2020,01,16,08,47,1.30
2020,01,16,08,48,1.30
2020,01,16,08,49,1.30
2020,01,16,08,50,1.30
2020,01,16,08,51,1.30
2020,01,16,08,52,1.30
2020,01,16,08,53,1.30
2020,01,16,08,54,1.40
2020,01,16,08,55,1.50
2020,01,16,08,56,1.60
2020,01,16,08,57,1.60
2020,01,16,08,58,1.70
2020,01,16,08,59,1.70
2020,01,16,09,00,1.70
2020,01,16,09,01,1.80
2020,01,16,09,02,1.80
2020,01,16,09,03,1.80
2020,01,16,09,04,1.80
2020,01,16,09,05,1.80
2020,01,16,09,06,1.80
2020,01,16,09,07,1.80
2020,01,16,09,08,1.80
2020,01,16,09,09,1.80
2020,01,16,09,10,1.80
2020,01,16,09,11,1.80
2020,01,16,09,12,1.80
2020,01,16,09,13,1.80
2020,01,16,09,14,1.80
2020,01,16,09,15,1.90
2020,01,16,09,16,1.90
2020,01,16,09,17,1.90
2020,01,16,09,18,1.90
2020,01,16,09,19,1.90
2020,01,16,09,20,1.90
2020,01,16,09,21,1.90
2020,01,16,09,22,1.90
2020,01,16,09,23,1.90
2020,01,16,09,24,1.90
2020,01,16,09,25,1.90
2020,01,16,09,26,2.00
2020,01,16,09,27,2.10
2020,01,16,09,28,2.10
2020,01,16,09,29,2.20
2020,01,16,09,30,2.20
2020,01,16,09,31,2.30
2020,01,16,09,32,2.30
2020,01,16,09,33,2.30
2020,01,16,09,34,2.40
2020,01,16,09,35,2.40
2020,01,16,09,36,2.50
2020,01,16,09,37,2.50
2020,01,16,09,38,2.50
2020,01,16,09,39,2.60
2020,01,16,09,40,2.60
2020,01,16,09,41,2.60
2020,01,16,09,42,2.60
2020,01,16,09,43,2.60
2020,01,16,09,44,2.60
2020,01,16,09,45,2.60
2020,01,16,09,46,2.60
2020,01,16,09,47,2.60
2020,01,16,09,48,2.70
2020,01,16,09,49,2.70
2020,01,16,09,50,2.70
2020,01,16,09,51,2.70
2020,01,16,09,52,2.70
2020,01,16,09,53,2.70
2020,01,16,09,54,2.70
2020,01,16,09,55,2.70
2020,01,16,09,56,2.70
2020,01,16,09,57,2.70
2020,01,16,09,58,2.70
2020,01,16,09,59,2.70
2020,01,16,10,00,2.80
2020,01,16,10,01,2.80
2020,01,16,10,02,2.80
2020,01,16,10,03,2.90
2020,01,16,10,04,2.90
2020,01,16,10,05,2.90
2020,01,16,10,06,2.90
2020,01,16,10,07,2.90
2020,01,16,10,08,2.90
2020,01,16,10,09,2.90
2020,01,16,10,10,2.90
2020,01,16,10,11,2.90
2020,01,16,10,12,2.90
2020,01,16,10,13,2.90
2020,01,16,10,14,2.90
2020,01,16,10,15,2.90
2020,01,16,10,16,2.90
2020,01,16,10,17,3.00
2020,01,16,10,18,3.00
2020,01,16,10,19,3.10
2020,01,16,10,20,3.10
2020,01,16,10,21,3.10
2020,01,16,10,22,3.20
2020,01,16,10,23,3.20
2020,01,16,10,24,3.20
2020,01,16,10,25,3.20
2020,01,16,10,26,3.20
2020,01,16,10,27,3.30
2020,01,16,10,28,3.30
2020,01,16,10,29,3.30
2020,01,16,10,30,3.40
2020,01,16,10,31,3.40
2020,01,16,10,32,3.50
2020,01,16,10,33,3.40
2020,01,16,10,34,3.50
2020,01,16,10,35,3.40
2020,01,16,10,36,3.40
2020,01,16,10,37,3.40
2020,01,16,10,38,3.40
2020,01,16,10,39,3.40
2020,01,16,10,40,3.40
2020,01,16,10,41,3.40
2020,01,16,10,42,3.40
2020,01,16,10,43,3.40
2020,01,16,10,44,3.40
2020,01,16,10,45,3.50
2020,01,16,10,46,3.60
2020,01,16,10,47,3.70
2020,01,16,10,48,3.70
2020,01,16,10,49,3.80
2020,01,16,10,50,3.80
2020,01,16,10,51,3.90
2020,01,16,10,52,4.00
2020,01,16,10,53,4.10
2020,01,16,10,54,4.10
2020,01,16,10,55,4.10
2020,01,16,10,56,4.10
2020,01,16,10,57,4.20
2020,01,16,10,58,4.20
2020,01,16,10,59,4.30
2020,01,16,11,00,4.30
2020,01,16,11,01,4.40
2020,01,16,11,02,4.50
2020,01,16,11,03,4.50
2020,01,16,11,04,4.60
2020,01,16,11,05,4.60
2020,01,16,11,06,4.60
2020,01,16,11,07,4.70
2020,01,16,11,08,4.70
2020,01,16,11,09,4.70
2020,01,16,11,10,4.70
2020,01,16,11,11,4.70
2020,01,16,11,12,4.70
2020,01,16,11,13,4.70
2020,01,16,11,14,4.80
2020,01,16,11,15,4.80
2020,01,16,11,16,4.80
2020,01,16,11,17,4.80
2020,01,16,11,18,4.80
2020,01,16,11,19,4.90
2020,01,16,11,20,4.90
2020,01,16,11,21,5.00
2020,01,16,11,22,5.00
2020,01,16,11,23,5.00
2020,01,16,11,24,5.00
2020,01,16,11,25,5.00
2020,01,16,11,26,5.00
2020,01,16,11,27,5.00
2020,01,16,11,28,5.00
2020,01,16,11,29,5.00
2020,01,16,11,30,5.00
2020,01,16,11,31,5.00
2020,01,16,11,32,5.00
2020,01,16,11,33,4.90
2020,01,16,11,34,4.90
2020,01,16,11,35,4.90
2020,01,16,11,36,4.90
2020,01,16,11,37,4.90
2020,01,16,11,38,4.90
2020,01,16,11,39,4.90
2020,01,16,11,40,4.80
2020,01,16,11,41,4.80
2020,01,16,11,42,4.80
2020,01,16,11,43,4.80
2020,01,16,11,44,4.80
2020,01,16,11,45,4.80
2020,01,16,11,46,4.80
2020,01,16,11,47,4.80
2020,01,16,11,48,4.80
2020,01,16,11,49,4.80
2020,01,16,11,50,4.80
2020,01,16,11,51,4.80
2020,01,16,11,52,4.70
2020,01,16,11,53,4.70
2020,01,16,11,54,4.70
2020,01,16,11,55,4.70
2020,01,16,11,56,4.70
2020,01,16,11,57,4.70
2020,01,16,11,58,4.70
2020,01,16,11,59,4.70
2020,01,16,12,00,4.70
2020,01,16,12,01,4.70
2020,01,16,12,02,4.70
2020,01,16,12,03,4.70
2020,01,16,12,04,4.70
2020,01,16,12,05,4.70
2020,01,16,12,06,4.70
2020,01,16,12,07,4.70
2020,01,16,12,08,4.70
2020,01,16,12,09,4.70
2020,01,16,12,10,4.70
2020,01,16,12,11,4.70
2020,01,16,12,12,4.70
2020,01,16,12,13,4.70
2020,01,16,12,14,4.70
2020,01,16,12,15,4.70
2020,01,16,12,16,4.70
2020,01,16,12,17,4.70
2020,01,16,12,18,4.70
2020,01,16,12,19,4.70
2020,01,16,12,20,4.70
2020,01,16,12,21,4.60
2020,01,16,12,22,4.60
2020,01,16,12,23,4.60
2020,01,16,12,24,4.60
2020,01,16,12,25,4.60
2020,01,16,12,26,4.60
2020,01,16,12,27,4.60
2020,01,16,12,28,4.60
2020,01,16,12,29,4.60
2020,01,16,12,30,4.60
2020,01,16,12,31,4.60
2020,01,16,12,32,4.60
2020,01,16,12,33,4.60
2020,01,16,12,34,4.60
2020,01,16,12,35,4.60
2020,01,16,12,36,4.70
2020,01,16,12,37,4.70
2020,01,16,12,38,4.70
2020,01,16,12,39,4.70
2020,01,16,12,40,4.70
2020,01,16,12,41,4.60
2020,01,16,12,42,4.60
2020,01,16,12,43,4.60
2020,01,16,12,44,4.60
2020,01,16,12,45,4.60
2020,01,16,12,46,4.70
2020,01,16,12,47,4.70
2020,01,16,12,48,4.70
2020,01,16,12,49,4.70
2020,01,16,12,50,4.70
2020,01,16,12,51,4.80
2020,01,16,12,52,4.80
2020,01,16,12,53,4.80
2020,01,16,12,54,4.80
2020,01,16,12,55,4.80
2020,01,16,12,56,4.70
2020,01,16,12,57,4.70
2020,01,16,12,58,4.70
2020,01,16,12,59,4.70
2020,01,16,13,00,4.70
2020,01,16,13,01,4.80
2020,01,16,13,02,4.80
2020,01,16,13,03,4.80
2020,01,16,13,04,4.90
2020,01,16,13,05,4.80
2020,01,16,13,06,4.80
2020,01,16,13,07,4.80
2020,01,16,13,08,4.80
2020,01,16,13,09,4.80
2020,01,16,13,10,4.80
2020,01,16,13,11,4.80
2020,01,16,13,12,4.80
2020,01,16,13,13,4.80
2020,01,16,13,14,4.80
2020,01,16,13,15,4.80
2020,01,16,13,16,4.80
2020,01,16,13,17,4.80
2020,01,16,13,18,4.80
2020,01,16,13,19,4.80
2020,01,16,13,20,4.80
2020,01,16,13,21,4.90
2020,01,16,13,22,4.80
2020,01,16,13,23,4.80
2020,01,16,13,24,4.80
2020,01,16,13,25,4.80
2020,01,16,13,26,4.80
2020,01,16,13,27,4.80
2020,01,16,13,28,4.80
2020,01,16,13,29,4.80
2020,01,16,13,30,4.80
2020,01,16,13,31,4.80
2020,01,16,13,32,4.80
2020,01,16,13,33,4.80
2020,01,16,13,34,4.80
2020,01,16,13,35,4.80
2020,01,16,13,36,4.80
2020,01,16,13,37,4.80
2020,01,16,13,38,4.80
2020,01,16,13,39,4.80
2020,01,16,13,40,4.80
2020,01,16,13,41,4.80
2020,01,16,13,42,4.80
2020,01,16,13,43,4.80
2020,01,16,13,44,4.80
2020,01,16,13,45,4.80
2020,01,16,13,46,4.80
2020,01,16,13,47,4.80
2020,01,16,13,48,4.80
2020,01,16,13,49,4.80
2020,01,16,13,50,4.70
2020,01,16,13,51,4.70
2020,01,16,13,52,4.70
2020,01,16,13,53,4.70
2020,01,16,13,54,4.60
2020,01,16,13,55,4.60
2020,01,16,13,56,4.60
2020,01,16,13,57,4.60
2020,01,16,13,58,4.60
2020,01,16,13,59,4.60
2020,01,16,14,00,4.60
2020,01,16,14,01,4.50
2020,01,16,14,02,4.50
2020,01,16,14,03,4.40
2020,01,16,14,04,4.40
2020,01,16,14,05,4.30
2020,01,16,14,06,4.30
2020,01,16,14,07,4.30
2020,01,16,14,08,4.30
2020,01,16,14,09,4.20
2020,01,16,14,10,4.20
2020,01,16,14,11,4.20
2020,01,16,14,12,4.10
2020,01,16,14,13,4.10
2020,01,16,14,14,4.10
2020,01,16,14,15,4.00
2020,01,16,14,16,4.00
2020,01,16,14,17,3.90
2020,01,16,14,18,3.80
2020,01,16,14,19,3.80
2020,01,16,14,20,3.80
2020,01,16,14,21,3.80
2020,01,16,14,22,3.80
2020,01,16,14,23,3.80
2020,01,16,14,24,3.80
2020,01,16,14,25,3.80
2020,01,16,14,26,3.80
2020,01,16,14,27,3.70
2020,01,16,14,28,3.70
2020,01,16,14,29,3.70
2020,01,16,14,30,3.80
2020,01,16,14,31,3.80
2020,01,16,14,32,3.80
2020,01,16,14,33,3.80
2020,01,16,14,34,3.70
2020,01,16,14,35,3.60
2020,01,16,14,36,3.50
2020,01,16,14,37,3.50
2020,01,16,14,38,3.40
2020,01,16,14,39,3.40
2020,01,16,14,40,3.30
2020,01,16,14,41,3.20
2020,01,16,14,42,3.10
2020,01,16,14,43,3.10
2020,01,16,14,44,3.10
2020,01,16,14,45,3.10
2020,01,16,14,46,3.20
2020,01,16,14,47,3.20
2020,01,16,14,48,3.30
2020,01,16,14,49,3.20
2020,01,16,14,50,3.20
2020,01,16,14,51,3.20
2020,01,16,14,52,3.20
2020,01,16,14,53,3.10
2020,01,16,14,54,3.10
2020,01,16,14,55,3.10
2020,01,16,14,56,3.10
2020,01,16,14,57,3.10
2020,01,16,14,58,3.10
2020,01,16,14,59,3.00
2020,01,16,15,00,3.00
2020,01,16,15,01,3.00
2020,01,16,15,02,3.00
2020,01,16,15,03,2.90
2020,01,16,15,04,2.90
2020,01,16,15,05,2.80
2020,01,16,15,06,2.80
2020,01,16,15,07,2.90
2020,01,16,15,08,2.90
2020,01,16,15,09,2.90
2020,01,16,15,10,2.90
2020,01,16,15,11,3.00
2020,01,16,15,12,2.90
2020,01,16,15,13,2.90
2020,01,16,15,14,2.90
2020,01,16,15,15,2.90
2020,01,16,15,16,2.80
2020,01,16,15,17,2.80
2020,01,16,15,18,2.70
2020,01,16,15,19,2.70
2020,01,16,15,20,2.70
2020,01,16,15,21,2.60
2020,01,16,15,22,2.50
2020,01,16,15,23,2.50
2020,01,16,15,24,2.40
2020,01,16,15,25,2.30
2020,01,16,15,26,2.30
2020,01,16,15,27,2.20
2020,01,16,15,28,2.20
2020,01,16,15,29,2.20
2020,01,16,15,30,2.20
2020,01,16,15,31,2.20
2020,01,16,15,32,2.10
2020,01,16,15,33,2.10
2020,01,16,15,34,2.10
2020,01,16,15,35,2.10
2020,01,16,15,36,2.10
2020,01,16,15,37,2.10
2020,01,16,15,38,2.10
2020,01,16,15,39,2.10
2020,01,16,15,40,2.10
2020,01,16,15,41,2.10
2020,01,16,15,42,2.10
2020,01,16,15,43,2.00
2020,01,16,15,44,2.00
2020,01,16,15,45,1.90
2020,01,16,15,46,1.90
2020,01,16,15,47,1.80
2020,01,16,15,48,1.80
2020,01,16,15,49,1.70
2020,01,16,15,50,1.70
2020,01,16,15,51,1.60
2020,01,16,15,52,1.50
2020,01,16,15,53,1.50
2020,01,16,15,54,1.40
2020,01,16,15,55,1.40
2020,01,16,15,56,1.30
2020,01,16,15,57,1.30
2020,01,16,15,58,1.30
2020,01,16,15,59,1.20
2020,01,16,16,00,1.20
2020,01,16,16,01,1.20
2020,01,16,16,02,1.10
2020,01,16,16,03,1.10
2020,01,16,16,04,1.00
2020,01,16,16,05,1.00
2020,01,16,16,06,0.90
2020,01,16,16,07,0.90
2020,01,16,16,08,0.90
2020,01,16,16,09,0.80
2020,01,16,16,10,0.80
2020,01,16,16,11,0.80
2020,01,16,16,12,0.80
2020,01,16,16,13,0.70
2020,01,16,16,14,0.70
2020,01,16,16,15,0.70
2020,01,16,16,16,0.70
2020,01,16,16,17,0.70
2020,01,16,16,18,0.60
2020,01,16,16,19,0.60
2020,01,16,16,20,0.60
2020,01,16,16,21,0.60
2020,01,16,16,22,0.60
2020,01,16,16,23,0.60
2020,01,16,16,24,0.50
2020,01,16,16,25,0.50
2020,01,16,16,26,0.50
2020,01,16,16,27,0.50
2020,01,16,16,28,0.40
2020,01,16,16,29,0.40
2020,01,16,16,30,0.40
2020,01,16,16,31,0.30
2020,01,16,16,32,0.30
2020,01,16,16,33,0.30
2020,01,16,16,34,0.20
2020,01,16,16,35,0.20
2020,01,16,16,36,0.20
2020,01,16,16,37,0.20
2020,01,16,16,38,0.20
2020,01,16,16,39,0.10
2020,01,16,16,40,0.10
2020,01,16,16,41,0.10
2020,01,16,16,42,0.10
2020,01,16,16,43,0.10
2020,01,16,16,44,0.10
2020,01,16,16,45,0.00
2020,01,16,16,46,0.00
2020,01,16,16,47,0.00
2020,01,16,16,48,0.00
2020,01,16,16,49,0.00
2020,01,16,16,50,-0.10
2020,01,16,16,51,-0.10
2020,01,16,16,52,-0.10
2020,01,16,16,53,-0.10
2020,01,16,16,54,-0.10
2020,01,16,16,55,-0.10
2020,01,16,16,56,-0.20
2020,01,16,16,57,-0.20
2020,01,16,16,58,-0.20
2020,01,16,16,59,-0.20
2020,01,16,17,00,-0.20
2020,01,16,17,01,-0.20
2020,01,16,17,02,-0.20
2020,01,16,17,03,-0.20
2020,01,16,17,04,-0.20
2020,01,16,17,05,-0.20
2020,01,16,17,06,-0.20
2020,01,16,17,07,-0.20
2020,01,16,17,08,-0.20
2020,01,16,17,09,-0.20
2020,01,16,17,10,-0.30
2020,01,16,17,11,-0.30
2020,01,16,17,12,-0.30
2020,01,16,17,13,-0.40
2020,01,16,17,14,-0.40
2020,01,16,17,15,-0.40
2020,01,16,17,16,-0.50
2020,01,16,17,17,-0.50
2020,01,16,17,18,-0.60
2020,01,16,17,19,-0.60
2020,01,16,17,20,-0.70
2020,01,16,17,21,-0.70
2020,01,16,17,22,-0.70
2020,01,16,17,23,-0.80
2020,01,16,17,24,-0.80
2020,01,16,17,25,-0.80
2020,01,16,17,26,-0.80
2020,01,16,17,27,-0.90
2020,01,16,17,28,-0.90
2020,01,16,17,29,-1.00
2020,01,16,17,30,-1.00
2020,01,16,17,31,-1.00
2020,01,16,17,32,-1.10
2020,01,16,17,33,-1.10
2020,01,16,17,34,-1.20
2020,01,16,17,35,-1.20
2020,01,16,17,36,-1.20
2020,01,16,17,37,-1.30
2020,01,16,17,38,-1.30
2020,01,16,17,39,-1.30
2020,01,16,17,40,-1.40
2020,01,16,17,41,-1.40
2020,01,16,17,42,-1.50
2020,01,16,17,43,-1.50
2020,01,16,17,44,-1.50
2020,01,16,17,45,-1.50
2020,01,16,17,46,-1.60
2020,01,16,17,47,-1.60
2020,01,16,17,48,-1.60
2020,01,16,17,49,-1.60
2020,01,16,17,50,-1.70
2020,01,16,17,51,-1.70
2020,01,16,17,52,-1.70
2020,01,16,17,53,-1.70
2020,01,16,17,54,-1.80
2020,01,16,17,55,-1.80
2020,01,16,17,56,-1.80
2020,01,16,17,57,-1.80
2020,01,16,17,58,-1.80
2020,01,16,17,59,-1.80
2020,01,16,18,00,-1.90
2020,01,16,18,01,-1.90
2020,01,16,18,02,-1.90
2020,01,16,18,03,-1.90
2020,01,16,18,04,-2.00
2020,01,16,18,05,-2.00
2020,01,16,18,06,-2.10
2020,01,16,18,07,-2.10
2020,01,16,18,08,-2.10
2020,01,16,18,09,-2.10
2020,01,16,18,10,-2.20
2020,01,16,18,11,-2.20
2020,01,16,18,12,-2.20
2020,01,16,18,13,-2.20
2020,01,16,18,14,-2.20
2020,01,16,18,15,-2.30
2020,01,16,18,16,-2.30
2020,01,16,18,17,-2.30
2020,01,16,18,18,-2.30
2020,01,16,18,19,-2.30
2020,01,16,18,20,-2.30
2020,01,16,18,21,-2.30
2020,01,16,18,22,-2.30
2020,01,16,18,23,-2.30
2020,01,16,18,24,-2.30
2020,01,16,18,25,-2.30
2020,01,16,18,26,-2.40
2020,01,16,18,27,-2.40
2020,01,16,18,28,-2.40
2020,01,16,18,29,-2.40
2020,01,16,18,30,-2.30
2020,01,16,18,31,-2.30
2020,01,16,18,32,-2.30
2020,01,16,18,33,-2.30
2020,01,16,18,34,-2.30
2020,01,16,18,35,-2.30
2020,01,16,18,36,-2.30
2020,01,16,18,37,-2.30
2020,01,16,18,38,-2.30
2020,01,16,18,39,-2.40
2020,01,16,18,40,-2.40
2020,01,16,18,41,-2.40
2020,01,16,18,42,-2.40
2020,01,16,18,43,-2.40
2020,01,16,18,44,-2.40
2020,01,16,18,45,-2.40
2020,01,16,18,46,-2.40
2020,01,16,18,47,-2.40
2020,01,16,18,48,-2.40
2020,01,16,18,49,-2.50
2020,01,16,18,50,-2.50
2020,01,16,18,51,-2.50
2020,01,16,18,52,-2.50
2020,01,16,18,53,-2.50
2020,01,16,18,54,-2.60
2020,01,16,18,55,-2.60
2020,01,16,18,56,-2.60
2020,01,16,18,57,-2.60
2020,01,16,18,58,-2.60
2020,01,16,18,59,-2.70
2020,01,16,19,00,-2.70
2020,01,16,19,01,-2.70
2020,01,16,19,02,-2.70
2020,01,16,19,03,-2.70
2020,01,16,19,04,-2.80
2020,01,16,19,05,-2.80
2020,01,16,19,06,-2.80
2020,01,16,19,07,-2.80
2020,01,16,19,08,-2.80
2020,01,16,19,09,-2.80
2020,01,16,19,10,-2.80
2020,01,16,19,11,-2.80
2020,01,16,19,12,-2.80
2020,01,16,19,13,-2.80
2020,01,16,19,14,-2.90
2020,01,16,19,15,-2.90
2020,01,16,19,16,-2.90
2020,01,16,19,17,-2.90
2020,01,16,19,18,-2.90
2020,01,16,19,19,-2.90
2020,01,16,19,20,-2.90
2020,01,16,19,21,-2.90
2020,01,16,19,22,-2.90
2020,01,16,19,23,-2.90
2020,01,16,19,24,-2.90
2020,01,16,19,25,-2.90
2020,01,16,19,26,-2.90
2020,01,16,19,27,-2.90
2020,01,16,19,28,-2.90
2020,01,16,19,29,-2.90
2020,01,16,19,30,-2.90
2020,01,16,19,31,-2.90
2020,01,16,19,32,-2.90
2020,01,16,19,33,-2.90
2020,01,16,19,34,-2.90
2020,01,16,19,35,-2.90
2020,01,16,19,36,-2.90
2020,01,16,19,37,-2.90
2020,01,16,19,38,-2.90
2020,01,16,19,39,-2.90
2020,01,16,19,40,-2.90
2020,01,16,19,41,-2.90
2020,01,16,19,42,-2.90
2020,01,16,19,43,-3.00
2020,01,16,19,44,-3.00
2020,01,16,19,45,-3.00
2020,01,16,19,46,-3.00
2020,01,16,19,47,-3.00
2020,01,16,19,48,-3.00
2020,01,16,19,49,-3.00
2020,01,16,19,50,-3.10
2020,01,16,19,51,-3.10
2020,01,16,19,52,-3.10
2020,01,16,19,53,-3.10
2020,01,16,19,54,-3.10
2020,01,16,19,55,-3.20
2020,01,16,19,56,-3.20
2020,01,16,19,57,-3.20
2020,01,16,19,58,-3.20
2020,01,16,19,59,-3.20
2020,01,16,20,00,-3.20
2020,01,16,20,01,-3.20
2020,01,16,20,02,-3.20
2020,01,16,20,03,-3.20
2020,01,16,20,04,-3.10
2020,01,16,20,05,-3.00
2020,01,16,20,06,-2.90
2020,01,16,20,07,-2.90
2020,01,16,20,08,-2.80
2020,01,16,20,09,-2.80
2020,01,16,20,10,-2.80
2020,01,16,20,11,-2.70
2020,01,16,20,12,-2.70
2020,01,16,20,13,-2.70
2020,01,16,20,14,-2.70
2020,01,16,20,15,-2.70
2020,01,16,20,16,-2.70
2020,01,16,20,17,-2.70
2020,01,16,20,18,-2.80
2020,01,16,20,19,-2.80
2020,01,16,20,20,-2.80
2020,01,16,20,21,-2.80
2020,01,16,20,22,-2.80
2020,01,16,20,23,-2.80
2020,01,16,20,24,-2.80
2020,01,16,20,25,-2.80
2020,01,16,20,26,-2.90
2020,01,16,20,27,-2.90
2020,01,16,20,28,-2.90
2020,01,16,20,29,-2.90
2020,01,16,20,30,-2.90
2020,01,16,20,31,-2.90
2020,01,16,20,32,-2.90
2020,01,16,20,33,-2.90
2020,01,16,20,34,-2.90
2020,01,16,20,35,-2.90
2020,01,16,20,36,-2.90
2020,01,16,20,37,-2.90
2020,01,16,20,38,-2.90
2020,01,16,20,39,-2.90
2020,01,16,20,40,-2.90
2020,01,16,20,41,-2.90
2020,01,16,20,42,-2.90
2020,01,16,20,43,-2.90
2020,01,16,20,44,-2.90
2020,01,16,20,45,-2.90
2020,01,16,20,46,-2.90
2020,01,16,20,47,-2.90
2020,01,16,20,48,-2.90
2020,01,16,20,49,-2.90
2020,01,16,20,50,-2.90
2020,01,16,20,51,-3.00
2020,01,16,20,52,-3.00
2020,01,16,20,53,-3.00
2020,01,16,20,54,-3.00
2020,01,16,20,55,-3.10
2020,01,16,20,56,-3.10
2020,01,16,20,57,-3.10
2020,01,16,20,58,-3.10
2020,01,16,20,59,-3.10
2020,01,16,21,00,-3.10
2020,01,16,21,01,-3.10
2020,01,16,21,02,-3.10
2020,01,16,21,03,-3.10
2020,01,16,21,04,-3.10
2020,01,16,21,05,-3.10
2020,01,16,21,06,-3.10
2020,01,16,21,07,-3.20
2020,01,16,21,08,-3.20
2020,01,16,21,09,-3.20
2020,01,16,21,10,-3.10
2020,01,16,21,11,-3.10
2020,01,16,21,12,-3.10
2020,01,16,21,13,-3.20
2020,01,16,21,14,-3.20
2020,01,16,21,15,-3.20
2020,01,16,21,16,-3.20
2020,01,16,21,17,-3.20
2020,01,16,21,18,-3.20
2020,01,16,21,19,-3.20
2020,01,16,21,20,-3.20
2020,01,16,21,21,-3.20
2020,01,16,21,22,-3.20
2020,01,16,21,23,-3.20
2020,01,16,21,24,-3.20
2020,01,16,21,25,-3.20
2020,01,16,21,26,-3.20
2020,01,16,21,27,-3.20
2020,01,16,21,28,-3.20
2020,01,16,21,29,-3.20
2020,01,16,21,30,-3.20
2020,01,16,21,31,-3.20
2020,01,16,21,32,-3.20
2020,01,16,21,33,-3.20
2020,01,16,21,34,-3.20
2020,01,16,21,35,-3.20
2020,01,16,21,36,-3.20
2020,01,16,21,37,-3.10
2020,01,16,21,38,-3.10
2020,01,16,21,39,-3.10
2020,01,16,21,40,-3.00
2020,01,16,21,41,-3.00
2020,01,16,21,42,-2.90
2020,01,16,21,43,-2.90
2020,01,16,21,44,-2.90
2020,01,16,21,45,-2.90
2020,01,16,21,46,-2.80
2020,01,16,21,47,-2.80
2020,01,16,21,48,-2.80
2020,01,16,21,49,-2.70
2020,01,16,21,50,-2.70
2020,01,16,21,51,-2.70
2020,01,16,21,52,-2.70
2020,01,16,21,53,-2.70
2020,01,16,21,54,-2.70
2020,01,16,21,55,-2.70
2020,01,16,21,56,-2.70
2020,01,16,21,57,-2.70
2020,01,16,21,58,-2.70
2020,01,16,21,59,-2.70
2020,01,16,22,00,-2.70
2020,01,16,22,01,-2.70
2020,01,16,22,02,-2.70
2020,01,16,22,03,-2.70
2020,01,16,22,04,-2.70
2020,01,16,22,05,-2.70
2020,01,16,22,06,-2.70
2020,01,16,22,07,-2.70
2020,01,16,22,08,-2.70
2020,01,16,22,09,-2.70
2020,01,16,22,10,-2.70
2020,01,16,22,11,-2.60
2020,01,16,22,12,-2.60
2020,01,16,22,13,-2.50
2020,01,16,22,14,-2.50
2020,01,16,22,15,-2.40
2020,01,16,22,16,-2.40
2020,01,16,22,17,-2.40
2020,01,16,22,18,-2.40
2020,01,16,22,19,-2.40
2020,01,16,22,20,-2.30
2020,01,16,22,21,-2.30
2020,01,16,22,22,-2.20
2020,01,16,22,23,-2.20
2020,01,16,22,24,-2.10
2020,01,16,22,25,-2.00
2020,01,16,22,26,-1.90
2020,01,16,22,27,-1.90
2020,01,16,22,28,-1.80
2020,01,16,22,29,-1.80
2020,01,16,22,30,-1.70
2020,01,16,22,31,-1.70
2020,01,16,22,32,-1.60
2020,01,16,22,33,-1.60
2020,01,16,22,34,-1.50
2020,01,16,22,35,-1.50
2020,01,16,22,36,-1.50
2020,01,16,22,37,-1.40
2020,01,16,22,38,-1.40
2020,01,16,22,39,-1.40
2020,01,16,22,40,-1.40
2020,01,16,22,41,-1.30
2020,01,16,22,42,-1.30
2020,01,16,22,43,-1.30
2020,01,16,22,44,-1.30
2020,01,16,22,45,-1.30
2020,01,16,22,46,-1.30
2020,01,16,22,47,-1.30
2020,01,16,22,48,-1.30
2020,01,16,22,49,-1.30
2020,01,16,22,50,-1.30
2020,01,16,22,51,-1.20
2020,01,16,22,52,-1.20
2020,01,16,22,53,-1.30
2020,01,16,22,54,-1.30
2020,01,16,22,55,-1.30
2020,01,16,22,56,-1.30
2020,01,16,22,57,-1.30
2020,01,16,22,58,-1.40
2020,01,16,22,59,-1.40
2020,01,16,23,00,-1.50
2020,01,16,23,01,-1.50
2020,01,16,23,02,-1.60
2020,01,16,23,03,-1.60
2020,01,16,23,04,-1.60
2020,01,16,23,05,-1.70
2020,01,16,23,06,-1.70
2020,01,16,23,07,-1.80
2020,01,16,23,08,-1.80
2020,01,16,23,09,-1.80
2020,01,16,23,10,-1.80
2020,01,16,23,11,-1.80
2020,01,16,23,12,-1.80
2020,01,16,23,13,-1.90
2020,01,16,23,14,-1.90
2020,01,16,23,15,-1.90
2020,01,16,23,16,-2.00
2020,01,16,23,17,-2.00
2020,01,16,23,18,-2.00
2020,01,16,23,19,-2.10
2020,01,16,23,20,-2.10
2020,01,16,23,21,-2.10
2020,01,16,23,22,-2.10
2020,01,16,23,23,-2.20
2020,01,16,23,24,-2.20
2020,01,16,23,25,-2.20
2020,01,16,23,26,-2.20
2020,01,16,23,27,-2.20
2020,01,16,23,28,-2.20
2020,01,16,23,29,-2.30
2020,01,16,23,30,-2.30
2020,01,16,23,31,-2.30
2020,01,16,23,32,-2.30
2020,01,16,23,33,-2.30
2020,01,16,23,34,-2.30
2020,01,16,23,35,-2.30
2020,01,16,23,36,-2.40
2020,01,16,23,37,-2.40
2020,01,16,23,38,-2.40
2020,01,16,23,39,-2.40
2020,01,16,23,40,-2.40
2020,01,16,23,41,-2.40
2020,01,16,23,42,-2.50
2020,01,16,23,43,-2.50
2020,01,16,23,44,-2.50
2020,01,16,23,45,-2.50
2020,01,16,23,46,-2.50
2020,01,16,23,47,-2.50
2020,01,16,23,48,-2.50
2020,01,16,23,49,-2.50
2020,01,16,23,50,-2.50
2020,01,16,23,51,-2.50
2020,01,16,23,52,-2.50
2020,01,16,23,53,-2.50
2020,01,16,23,54,-2.50
2020,01,16,23,55,-2.50
2020,01,16,23,56,-2.50
2020,01,16,23,57,-2.50
2020,01,16,23,58,-2.50
2020,01,16,23,59,-2.50
